EHI
0 0 0 0 0 0 0 0 0 0 0 0 0 0 0 0 0 0 0 0 0 1 0 0 0 1 2 5 9 12 11 9 6 3 3 4 4 3 3 3 3 3 2 1 0 0 0 0 0
0 0 0 0 0 0 0 0 0 0 0 0 0 0 0 0 0 0 0 0 1 2 1 1 1 2 3 5 10 11 10 7 4 2 2 3 3 3 2 3 3 3 2 1 1 0 0 0 1
0 0 0 0 0 0 0 0 0 0 0 0 0 0 0 0 0 0 0 1 3 3 3 3 4 3 3 5 8 10 8 5 3 1 1 3 3 3 3 3 3 2 1 1 1 0 0 1 2
0 0 0 0 0 0 0 0 0 0 0 0 0 0 0 0 0 0 0 3 6 5 4 5 7 6 4 4 6 7 6 4 2 1 2 3 3 3 3 3 3 2 1 1 1 1 0 1 2
0 0 0 0 0 0 0 0 0 1 1 0 0 0 0 0 1 1 1 3 7 7 5 7 9 8 6 4 4 4 4 3 2 2 3 3 3 3 3 2 2 1 0 1 1 1 1 1 1
0 0 0 0 0 0 0 0 1 2 2 1 0 0 0 0 2 5 4 4 5 7 7 7 8 8 6 4 3 3 4 4 4 3 3 3 3 2 1 1 1 1 0 1 1 1 0 0 0
0 0 0 0 0 0 0 0 1 3 3 1 0 0 0 1 4 7 7 5 4 6 6 7 7 7 5 4 3 4 5 6 5 4 3 2 1 1 0 0 0 0 0 0 0 0 0 0 0
0 0 0 0 0 0 0 1 2 3 3 1 0 1 2 3 5 7 8 6 4 4 5 6 6 6 4 3 3 4 5 6 5 2 1 1 0 0 0 0 0 0 0 0 0 0 0 0 0
0 0 0 0 0 0 1 1 2 3 4 3 1 5 11 10 7 8 9 7 5 4 4 4 5 6 4 3 3 3 4 4 3 1 0 0 0 0 0 0 0 0 0 0 0 0 0 0 0
0 0 0 0 0 1 2 2 2 3 5 6 9 19 28 21 11 8 8 7 5 3 3 3 4 5 5 4 3 3 3 3 2 1 0 0 0 0 0 0 0 0 0 0 0 0 0 0 0
0 0 0 0 0 1 2 3 3 3 5 11 24 41 43 29 14 8 7 6 4 3 3 3 3 4 4 4 3 3 3 2 1 0 0 0 0 0 0 0 0 0 0 0 0 0 0 0 0
0 0 0 0 0 1 3 4 4 3 5 15 37 54 48 30 15 8 5 4 3 3 2 1 1 1 2 3 3 3 2 1 0 0 0 0 0 0 0 0 0 0 0 0 0 0 0 0 0
0 0 0 0 0 1 3 5 6 5 10 25 46 55 46 29 16 10 7 4 2 2 1 0 0 1 1 1 1 2 1 0 0 0 0 0 0 0 0 0 0 0 0 0 0 0 0 0 0
0 0 0 0 0 1 3 6 6 10 22 38 49 50 41 28 18 14 11 7 3 1 0 0 0 1 2 1 0 0 0 0 0 0 0 0 0 0 0 0 0 0 0 0 0 0 0 0 0
0 0 0 0 0 1 2 4 5 15 34 46 44 41 36 27 21 19 15 10 4 1 0 0 0 1 2 1 0 0 0 0 0 0 0 0 0 0 0 0 0 0 0 0 0 0 0 0 0
0 0 0 0 0 0 1 2 6 19 38 44 38 33 29 24 22 21 18 13 7 4 3 2 1 1 1 1 0 0 0 0 0 0 0 0 0 0 0 0 0 0 0 0 0 0 0 0 0
0 0 0 1 1 1 1 2 7 20 35 40 36 31 24 20 21 22 20 17 13 10 8 6 5 3 2 0 0 0 0 0 0 0 0 0 0 0 0 0 0 0 0 0 0 0 0 0 0
0 0 0 1 2 1 1 3 8 17 27 32 33 29 23 19 21 23 22 20 17 14 11 9 8 5 3 1 0 0 0 0 0 0 0 0 0 0 0 0 0 0 0 0 0 0 0 0 0
0 0 0 0 1 1 1 3 6 13 20 23 25 24 22 20 21 25 26 24 20 18 15 12 9 6 4 3 1 1 1 0 0 0 0 0 0 0 1 1 0 0 0 0 0 0 0 0 0
0 0 0 0 0 0 1 2 4 8 13 15 17 18 19 20 22 28 34 33 30 27 25 21 14 10 8 6 3 2 1 1 1 0 1 1 0 0 1 1 0 0 1 0 0 0 0 0 0
0 0 0 0 0 0 0 1 3 4 7 9 10 12 15 19 23 30 40 44 41 39 38 34 26 20 17 14 10 6 5 5 4 3 3 2 1 1 1 1 0 0 0 0 0 0 0 0 0
0 0 0 0 0 0 0 0 1 2 3 6 6 8 13 16 21 31 43 49 49 48 47 44 38 31 26 24 22 17 14 11 8 6 6 5 3 3 3 2 0 0 0 0 0 0 0 0 0
0 0 0 0 0 0 0 0 0 1 3 6 7 9 12 17 23 33 45 51 52 50 49 48 43 36 32 30 30 28 21 14 9 7 7 7 6 5 5 3 1 1 0 0 0 0 0 1 1
0 0 0 0 0 0 0 0 0 0 2 5 9 12 15 21 28 36 44 50 51 50 49 50 44 38 33 31 30 31 23 12 7 7 8 9 8 6 5 5 3 2 1 0 0 0 0 0 0
0 0 0 0 0 0 0 0 0 0 0 3 10 16 20 26 33 38 42 47 49 50 53 52 46 38 33 28 27 27 21 11 6 7 9 9 7 5 4 5 4 2 1 0 0 0 0 0 0
0 0 0 0 0 0 0 0 0 0 1 3 8 16 24 30 36 41 44 45 46 48 51 51 46 40 34 28 24 22 17 10 6 6 7 7 5 3 3 4 3 2 0 0 0 0 0 0 0
0 0 0 0 0 0 0 0 0 0 2 4 8 16 25 31 37 42 45 45 44 44 46 46 45 42 36 29 25 21 15 10 6 5 4 4 4 3 3 3 2 1 0 0 0 0 0 0 0
0 0 0 0 0 0 0 0 0 0 2 5 9 16 23 27 32 39 43 44 42 41 41 41 40 38 34 30 26 23 17 11 7 5 3 3 3 3 3 2 1 1 0 0 0 0 0 0 0
0 0 0 0 0 0 0 0 0 0 1 4 9 15 18 19 24 33 38 39 39 39 38 37 35 32 30 28 26 24 20 14 9 7 5 4 3 3 1 1 0 0 0 0 0 0 0 0 0
0 0 0 0 0 0 0 0 0 1 2 4 9 14 15 13 17 28 35 36 37 37 36 36 33 30 28 27 26 23 20 16 12 9 6 5 4 2 1 0 0 0 0 0 0 0 0 0 0
Wind_Speed
2 2 2 1 5 6 3 3 1 2 3 3 5 6 7 5 2 4 3 6 9 7 6 9 13 14 15 15 15 16 16 16 17 16 16 16 16 16 17 16 16 16 17 17 17 17 16 16 16
1 2 1 4 6 4 3 2 2 2 3 4 6 6 7 5 5 7 5 6 9 7 6 8 13 13 14 14 14 14 15 16 16 16 15 15 16 16 16 16 16 16 17 17 16 16 16 16 15
2 1 3 5 4 3 1 1 3 3 3 3 5 6 5 5 6 5 6 10 8 7 5 8 14 13 14 14 13 14 14 15 15 15 15 15 16 16 16 16 15 16 16 16 16 16 15 15 14
2 3 5 6 3 2 3 2 4 4 4 5 5 6 5 5 4 6 11 11 9 6 5 8 14 13 13 13 13 13 14 14 14 14 14 14 15 15 15 15 15 15 15 16 15 15 14 14 14
3 4 6 4 2 2 1 4 3 3 3 4 5 6 4 4 10 13 11 11 9 6 5 7 13 13 13 12 12 13 13 13 14 14 14 14 14 14 15 15 15 15 15 15 14 13 13 13 13
5 5 6 1 2 1 1 3 3 4 4 4 5 6 4 5 11 11 10 9 7 6 5 7 12 13 12 12 12 12 13 13 13 13 13 13 13 13 14 13 14 14 14 13 13 12 12 11 12
4 5 4 2 0 0 3 3 4 4 5 4 5 6 4 6 8 10 9 8 6 6 5 4 6 8 11 11 11 12 12 12 12 12 13 13 13 13 13 12 12 12 12 12 12 12 11 11 11
4 5 3 1 2 2 2 3 3 5 4 5 5 8 7 9 10 10 9 7 6 5 4 4 5 4 4 6 10 11 11 11 11 12 12 12 12 11 12 10 11 11 11 11 11 11 10 10 10
4 6 2 3 4 3 3 4 3 3 5 3 4 5 8 17 15 12 10 7 6 6 4 4 5 4 4 4 7 8 10 10 9 8 11 9 5 5 6 8 10 10 10 10 10 10 10 9 9
5 3 4 4 4 4 4 5 6 5 4 3 5 10 17 17 15 15 13 12 10 8 6 4 5 4 4 4 4 3 3 4 4 4 5 4 4 3 5 6 9 9 9 9 9 9 9 7 4
3 4 3 3 3 4 5 5 5 9 5 7 12 19 20 18 14 13 12 11 10 8 7 6 5 4 4 3 3 2 2 3 3 5 5 4 3 3 3 2 3 4 5 4 5 5 4 4 3
2 3 3 3 2 4 6 6 5 7 6 9 16 22 22 19 16 15 14 11 9 9 8 6 5 4 4 3 3 3 2 2 2 3 4 3 2 2 2 2 2 2 2 3 3 2 3 3 3
2 3 2 3 3 4 5 5 5 3 5 14 17 18 19 17 14 11 10 9 9 9 8 7 6 6 4 4 3 3 3 3 3 3 3 3 3 2 2 1 1 2 2 2 2 2 3 3 3
2 2 3 2 1 3 5 3 3 3 12 16 18 17 16 16 14 11 10 10 10 10 9 8 7 6 5 4 3 3 3 3 3 3 3 3 3 2 2 2 1 1 1 1 2 2 2 2 2
1 2 4 2 1 2 6 2 3 6 14 16 16 15 15 12 12 13 13 12 12 11 9 9 8 7 6 5 4 3 3 3 3 3 3 4 4 3 3 2 1 1 1 2 2 2 2 2 2
3 3 2 4 1 2 7 5 3 10 15 14 14 14 13 11 12 11 11 10 9 9 9 9 10 8 7 6 4 3 3 3 3 3 3 4 5 4 3 3 2 2 1 1 1 2 2 1 2
4 2 1 3 2 2 3 4 3 9 12 13 13 13 12 11 11 11 11 11 10 10 10 9 8 9 8 6 4 3 3 3 3 3 3 4 5 5 4 3 2 3 2 2 2 1 1 2 2
3 3 1 1 2 2 2 3 3 8 11 12 11 11 11 13 14 12 11 11 10 9 9 9 8 8 7 5 3 2 2 3 3 3 4 5 4 5 4 3 3 3 2 2 1 2 1 1 2
5 4 1 3 2 1 2 3 4 8 8 9 9 9 11 12 9 9 11 11 10 9 9 10 9 8 7 5 4 4 3 3 3 3 5 5 5 5 5 4 4 4 3 3 3 2 2 1 1
3 2 1 2 1 1 1 3 3 8 12 13 13 13 13 10 9 11 11 11 12 12 12 11 10 9 9 7 5 3 3 2 3 3 3 5 5 6 6 5 4 4 4 4 4 3 2 2 2
3 4 3 2 3 3 2 4 1 3 5 6 8 10 9 11 12 11 12 13 12 13 13 12 11 10 9 7 4 3 2 1 2 3 3 5 6 6 6 6 5 5 5 5 5 5 5 3 2
4 5 5 3 2 2 2 1 5 4 4 7 9 9 10 9 9 10 11 12 13 13 11 10 10 9 8 8 8 8 6 5 6 4 4 4 5 6 6 6 6 6 5 5 6 5 4 4 3
6 3 3 2 3 1 1 2 7 1 5 10 12 11 10 9 10 11 12 12 10 10 10 9 9 9 8 9 9 9 7 5 3 3 4 4 4 6 7 7 6 6 5 6 5 5 5 4 4
5 6 6 6 5 0 3 4 7 5 9 8 9 10 9 9 9 9 8 8 8 8 9 9 10 9 9 10 9 9 9 7 5 5 5 4 3 4 6 7 6 6 6 6 6 6 7 6 5
5 6 4 3 3 5 3 3 10 7 6 7 9 9 8 8 9 9 9 9 9 10 10 10 10 10 9 9 9 9 8 8 8 6 6 5 3 4 6 6 6 6 6 6 6 6 7 7 6
6 10 9 6 5 4 1 5 8 5 3 4 5 5 6 7 8 9 10 9 9 9 10 10 11 10 10 9 8 7 7 6 5 6 5 5 5 5 5 6 6 7 7 7 6 6 7 6 7
7 5 7 8 3 1 3 6 8 2 2 1 2 3 5 7 8 9 8 8 9 9 10 11 10 9 9 8 7 6 6 6 5 5 4 4 3 3 4 5 6 6 7 7 6 5 7 6 7
7 10 7 7 6 2 3 4 5 4 4 2 2 4 5 5 6 6 6 7 7 7 7 8 8 8 7 7 7 6 5 5 5 4 4 4 4 3 3 4 5 5 6 6 6 6 6 7 6
5 5 6 6 6 7 3 7 6 6 5 4 3 3 4 4 5 5 5 6 6 6 6 7 7 7 7 7 6 5 5 5 5 4 5 4 3 4 4 4 5 5 6 5 6 7 7 8 7
6 8 9 7 4 4 5 8 4 4 4 4 3 2 3 3 3 4 4 5 6 6 6 6 6 6 6 6 6 5 5 4 4 4 4 4 3 3 4 4 4 5 5 5 6 7 7 8 8
Wind_Direction
216 156 138 90 56 48 35 354 50 62 51 57 87 88 93 73 97 129 117 127 123 123 121 120 117 114 113 110 108 108 109 110 110 110 111 111 111 110 108 107 106 106 107 106 106 106 106 106 107
157 155 97 59 72 60 341 331 39 57 119 113 81 76 75 69 71 104 123 130 125 123 117 123 120 117 115 114 112 111 112 112 113 112 112 112 111 110 109 108 107 108 108 108 107 107 107 107 107
190 166 83 68 82 142 209 315 109 96 91 83 81 70 74 98 114 120 137 131 120 118 118 131 124 120 117 116 114 114 114 115 115 114 113 113 113 112 110 109 108 109 109 108 108 108 107 107 108
121 56 54 66 74 210 188 174 142 115 65 59 94 78 70 89 120 128 133 130 122 120 124 136 127 124 120 118 117 117 116 116 115 115 114 114 114 114 113 111 109 108 108 108 108 108 107 107 110
65 75 60 50 328 282 183 164 148 103 71 69 88 86 59 45 108 125 131 131 130 128 129 134 131 128 124 123 122 120 119 118 117 117 116 115 115 115 113 112 111 109 109 108 107 108 108 109 111
57 66 78 75 310 334 156 161 127 97 91 88 88 92 74 116 125 133 131 128 129 129 123 131 135 132 129 127 127 124 122 121 120 120 118 116 115 115 114 114 113 112 111 110 110 109 108 109 111
96 88 117 155 195 277 178 139 130 124 117 120 110 101 111 139 135 130 124 121 120 117 113 115 128 133 135 133 131 129 127 125 124 122 121 120 118 117 116 115 115 115 115 113 111 109 107 109 114
116 98 93 138 158 220 155 115 120 127 120 117 117 137 159 159 138 125 120 115 117 114 110 112 111 112 120 130 135 134 132 130 129 128 127 125 123 122 120 116 118 117 116 115 114 111 109 110 116
86 76 135 199 183 204 152 131 132 105 116 123 118 141 146 141 137 135 135 132 139 139 121 119 116 114 117 128 141 136 136 135 132 130 128 114 91 96 109 122 124 121 120 118 116 112 108 104 110
88 122 216 209 193 180 168 153 152 130 136 112 92 109 130 143 149 153 157 161 163 161 153 136 132 131 132 138 112 100 105 108 97 92 98 92 91 101 112 128 128 124 119 117 113 106 99 90 90
141 185 233 236 206 169 157 155 153 142 187 188 159 147 150 155 161 165 167 169 169 164 163 155 148 140 133 116 115 95 90 95 99 104 106 103 92 87 78 74 95 92 94 81 90 83 80 90 98
170 237 232 262 178 157 161 155 157 183 212 168 156 153 157 164 171 174 173 172 166 167 170 162 155 147 141 130 127 121 116 113 112 117 120 115 109 98 92 84 77 71 74 83 81 85 89 94 109
204 264 262 254 225 174 152 166 161 205 138 132 143 155 165 170 175 177 172 168 167 173 173 170 164 160 152 142 151 146 139 135 132 130 136 138 135 134 121 109 97 95 94 99 102 99 104 103 112
239 263 297 292 195 167 146 152 132 179 136 140 154 167 174 176 174 170 170 173 177 179 178 173 173 167 158 159 161 153 151 147 146 154 162 157 149 148 145 139 129 116 112 112 114 112 110 106 119
303 344 351 359 69 144 118 107 192 153 143 151 165 174 178 180 177 181 182 180 181 181 177 176 177 170 169 171 177 165 160 158 166 172 172 169 165 161 156 156 163 163 129 117 100 97 103 118 123
56 55 7 315 34 121 134 204 197 154 154 162 172 178 182 185 186 187 184 180 178 176 176 179 185 176 178 177 177 165 164 170 179 177 177 180 177 169 160 168 186 175 146 137 129 121 111 108 121
43 104 180 315 4 101 137 208 182 163 163 170 177 182 184 185 190 190 186 183 179 179 176 178 183 175 178 177 174 174 167 180 185 182 184 187 183 176 170 182 186 165 156 163 171 131 133 144 146
179 152 150 250 322 82 157 219 171 175 173 179 183 185 187 194 197 188 184 183 180 177 175 179 180 173 166 162 160 164 176 189 188 192 196 188 185 178 171 185 187 167 162 169 162 145 126 141 155
147 135 174 252 277 126 202 225 197 181 178 183 190 193 199 204 191 182 181 182 178 177 176 183 185 177 165 163 170 176 191 191 195 205 200 192 188 181 176 191 183 178 181 184 173 158 151 149 126
146 141 206 312 350 122 210 275 229 187 194 195 195 200 202 194 181 184 184 184 185 185 184 186 190 182 180 182 174 168 164 177 190 202 199 195 191 186 193 190 190 186 182 181 179 167 158 171 161
179 177 189 208 3 26 90 338 283 226 215 211 212 210 206 200 194 188 187 189 189 190 189 192 191 187 187 174 152 133 114 110 166 198 203 200 195 197 198 193 193 190 188 195 194 183 175 182 189
218 209 180 163 99 308 88 274 276 235 226 222 221 212 210 206 198 190 190 192 195 195 189 186 186 187 185 174 172 170 180 193 201 197 199 198 200 200 200 199 197 195 196 201 203 193 185 176 191
198 182 156 144 141 79 13 166 278 225 230 235 226 217 212 203 197 197 196 196 195 188 185 183 182 185 184 185 185 184 191 195 182 179 191 204 208 207 204 204 201 201 203 208 202 191 193 190 190
148 77 58 51 79 162 226 170 265 224 216 232 226 216 209 199 195 194 191 183 182 180 180 180 182 186 185 188 190 194 193 186 180 190 197 206 211 213 211 205 204 206 207 209 206 203 202 202 201
115 96 53 22 32 241 254 187 247 245 230 230 226 214 202 190 186 182 181 183 184 182 183 183 184 187 186 189 194 199 199 192 194 197 201 203 211 217 216 209 208 210 213 212 207 206 212 206 205
163 141 154 174 197 253 268 225 254 264 261 247 230 207 184 182 184 186 187 180 183 185 181 180 186 189 185 189 195 197 197 195 199 199 198 202 212 219 212 207 212 216 214 215 207 210 216 211 215
137 170 156 125 139 122 274 282 298 291 306 285 199 161 175 182 182 184 180 173 178 183 184 182 183 185 188 191 190 196 198 196 197 194 194 201 210 216 213 212 217 222 218 215 207 213 218 215 219
143 143 113 123 140 195 283 272 249 258 253 242 206 187 185 176 174 176 172 174 177 178 176 173 178 182 181 181 185 193 197 196 192 184 194 204 208 212 210 219 224 229 225 217 213 218 219 217 223
112 106 110 114 144 149 197 262 233 220 221 217 223 202 183 178 177 173 173 169 159 157 160 166 171 172 176 181 182 184 186 191 186 190 200 206 209 208 214 222 225 229 229 222 218 224 220 223 227
147 156 144 144 178 158 159 259 275 218 219 199 196 182 164 166 169 165 162 150 145 151 157 158 160 168 175 173 169 177 177 178 188 198 201 199 207 212 217 221 229 233 231 223 222 230 227 225 227